Вернуться в каталог

STARLINK-4777

АктивенСвязьVLEO
NORAD 53847·PAYLOAD·🇺🇸 United States

Запущен Sep 19, 2022 с Cape Canaveral Space Force Station

Loading…

Ближайшие Пролёты (ближайшие 24 часа)

TLE

СвежийSource: CelesTrak SupGP

Эпоха: Sep 15, 2026, 02:48 UTC

1 53847C 22114AF  26258.11715278  .00011522  00000+0  72256-3 0  2585
2 53847  53.1584 163.0500 0001628  85.8873 131.8896 15.08827175    17

Отслеживайте STARLINK-4777 в реальном времени с AllMySat

Download on the App Store